Preview of NWS' New Version of Forecast
This preview is not operational and should not be used for support decisions.
Latest weather observations around

Harrison, Boone County Airport (KHRO)

Using English Units (Switch to International System of Units)
Date/ Time (CDT) Wind (mph) Vis. (mi) Weather Sky Cond. Temp (°F) Rel. Humidity Wind Chill (°F) Heat Index (°F) Pressure Precip. (in)
Air Dwpt 6 hour Altimeter (inHg) Sea level (inHg) 1 hr 3 hr 6 hr
Max Min
Apr 23 00:00 N 7 8 Cloudy OVC005 50 50     100% 47   29.93        
Apr 22 23:53 N 6 10 Cloudy OVC004 51 50     96%     29.94 29.93      
Apr 22 23:17 N 7 8 Cloudy OVC004 51 51     100%     29.94        
Apr 22 23:01 N 6 8 Cloudy OVC005 51 51     100%     29.94        
Apr 22 22:53 N 6 10 Cloudy OVC004 51 51     100%     29.95 29.94 0    
Apr 22 22:35 N 8 5 Fog/Mist OVC004 51 51     100%     29.95   0    
Apr 22 21:53 N 7 10 Light Rain OVC005 52 52     100%     29.94 29.93 0 0  
Apr 22 20:53 N 9 5 Rain and Fog/Mist OVC006 53 53     100%     29.94 29.93 0    
Apr 22 20:51 N 7 5 Rain and Fog/Mist OVC006 54 54     100%     29.94   0    
Apr 22 20:04 WNW 5 4 Light Rain and Fog/Mist OVC004 53 53     100%     29.93   0    
Apr 22 19:53 NNW 3 8 Cloudy OVC005 53 53     100%     29.92 29.91 0    
Apr 22 19:13 NW 3 3 Light Rain and Fog/Mist BKN005 BKN011 OVC018 53 53     100%     29.92   0    
Apr 22 19:01 NW 3 9 Cloudy SCT007 BKN010 OVC020 53 53     100%     29.92        
Apr 22 18:53 NW 5 10 Cloudy SCT010 BKN016 OVC023 53 53     100%     29.92 29.91 0   0
Apr 22 18:09 N 6 6 Light Rain and Fog/Mist BKN028 OVC033 53 52     96%     29.92   0    
Apr 22 17:58 N 8 3 Light Rain and Fog/Mist FEW008 OVC030 53 52     96%     29.92   0    
Apr 22 17:53 N 7 1.75 Rain and Fog/Mist FEW008 OVC030 53 52     96%     29.92 29.91 0    
Apr 22 17:38 NNE 13 2.5 Light Rain and Fog/Mist FEW008 SCT020 OVC032 53 52     96%     29.92   0    
Apr 22 17:30   4 Rain and Fog/Mist FEW008 BKN020 OVC042 55 53     93%     29.92   0    
Apr 22 16:53 N 8 10 Cloudy FEW026 FEW040 OVC055 62 50     65%     29.91 29.89      
Apr 22 15:53 5 10 Mostly Cloudy FEW024 BKN035 BKN042 62 51     67%     29.91 29.89      
Apr 22 15:40 N 3 10 Mostly Cloudy SCT025 BKN036 60 51     72%     29.91        
Apr 22 15:11 NE 5 10 Mostly Cloudy BKN022 BKN035 60 51     72%     29.92        
Apr 22 14:53 N 6 10 Clear CLR 61 51     70%     29.93 29.91      
Apr 22 14:41 6 10 Partly Cloudy SCT026 60 52     75%     29.92        
Apr 22 14:09 N 6 10 Cloudy FEW010 BKN021 OVC027 57 53     87%     29.93        
Apr 22 14:02 N 6 10 Cloudy SCT009 BKN014 OVC028 57 53     87%     29.94        
Apr 22 13:53 N 6 10 Cloudy FEW009 SCT014 OVC021 56 52     87%     29.95 29.93      
Apr 22 13:49 N 5 10 Cloudy FEW011 SCT014 OVC021 55 52     88%     29.95        
Apr 22 13:42 NW 5 10 Cloudy BKN013 OVC021 56 52     87%     29.95        
Apr 22 13:32 N 5 10 Cloudy SCT009 BKN015 OVC021 56 53     90%     29.95        
Apr 22 13:01 Calm 10 Cloudy BKN011 OVC018 55 52     89%     29.95        
Apr 22 12:53 NNE 3 10 Cloudy BKN009 OVC015 54 52     93%     29.95 29.94 0   0
Apr 22 12:51 NE 3 10 Cloudy OVC009 54 52     94%     29.95   0    
Apr 22 12:39 N 3 10 Cloudy BKN010 OVC015 54 51     90%     29.95   0    
Apr 22 11:53 NNE 3 10 Light Rain SCT007 BKN015 BKN028 55 52     89%     29.95 29.94 0    
Apr 22 11:44 Calm 10 Light Rain SCT006 BKN015 OVC065 54 52     93%     29.96   0    
Apr 22 11:32 S 5 10 Light Rain SCT006 SCT016 OVC065 53 53     100%     29.96   0    
Apr 22 10:53 E 5 10 Cloudy FEW024 BKN090 OVC110 53 52     96%     29.97 29.96 0    
Apr 22 10:09 Calm 10 Light Rain SCT012 BKN080 OVC100 52 52     100%     29.97   0    
Apr 22 09:53 WSW 6 10 Cloudy SCT007 BKN012 OVC085 52 51     97%     29.95 29.94 0 0  
Apr 22 09:44 SW 6 10 Cloudy SCT007 BKN012 OVC075 52 51     97%     29.96   0    
Apr 22 09:35 SSW 6 10 Light Rain SCT005 BKN060 OVC075 51 51     100%     29.96   0    
Apr 22 08:53 Calm 4 Light Rain and Fog/Mist OVC060 52 52     100%     29.96 29.94 0    
Apr 22 08:15 NNE 3 4 Rain and Fog/Mist OVC055 52 52     100%     29.95   0    
Apr 22 08:03 N 5 2.5 Rain and Fog/Mist BKN048 OVC060 52 52     100%     29.95   0    
Apr 22 07:53 Calm 3 Rain and Fog/Mist OVC055 52 52     100%     29.96 29.95 0    
Apr 22 07:31 NE 3 3 Rain and Fog/Mist OVC049 52 52     100%     29.97   0    
Apr 22 07:22 Calm 1.25 Heavy Rain and Fog/Mist BKN045 OVC055 52 52     100%     29.97   0    
Apr 22 07:10 W 5 2.5 Rain and Fog/Mist FEW024 SCT034 OVC046 52 52     100%     29.97   0    
Apr 22 07:03 WSW 3 1.75 Heavy Rain and Fog/Mist FEW006 BKN034 OVC046 52 52     100%     29.98   0    
Apr 22 06:53 W 6 1 Heavy Rain and Fog/Mist SCT003 BKN024 OVC031 53 52     96%     29.98 29.96 0   0
Apr 22 06:46 W 9 1.5 Heavy Rain and Fog/Mist SCT003 BKN019 OVC031 53 52     96%     29.98   0    
Apr 22 06:38 WSW 8 2 Rain and Fog/Mist BKN003 BKN026 OVC043 53 53     100%     29.97   0    
Apr 22 06:29 Calm 2.5 Rain and Fog/Mist BKN005 BKN026 OVC036 53 53     100%     29.96   0    
Apr 22 06:23 Calm 3 Light Rain and Fog/Mist SCT005 BKN024 OVC041 53 53     100%     29.96   0    
Apr 22 05:53 SE 5 5 Light Rain and Fog/Mist BKN007 OVC012 53 53     100%     29.96 29.94 0    
Apr 22 05:46 ESE 5 4 Light Rain and Fog/Mist BKN007 OVC012 53 53     100%     29.96   0    
Apr 22 05:32 ESE 7 3 Rain and Fog/Mist BKN012 OVC018 53 53     100%     29.95   0    
Apr 22 04:53 ESE 10 3 Rain and Fog/Mist FEW013 BKN020 OVC048 54 53     97%     29.94 29.92 0    
Apr 22 03:53 ESE 7 10 Cloudy BKN025 OVC032 54 52     93%     29.94 29.92 0 0  
Apr 22 03:44 ESE 8 10 Cloudy BKN027 OVC032 54 52     93%     29.94   0    
Notice The following observation data may not be complete
Apr 22 03:34   10 Light Rain SCT025 OVC032          %         0    
Apr 22 02:53 E 6 10 Light Rain BKN027 OVC035 53 51     93%     29.97 29.94 0    
Apr 22 02:30 ESE 3 10 Light Rain BKN028 OVC036 53 51     93%     29.98   0    
Apr 22 01:53 ESE 8 10 Light Rain FEW031 OVC070 55 49     80%     30 29.98 0    
Apr 22 00:53 ESE 7 10 Cloudy OVC055 55 50     83%     30.02 30.01     0
Apr 21 23:53 ESE 3 10 Cloudy BKN043 OVC050 54 51     90%     30.04 30.02 0    
Apr 21 22:53 Calm 10 Cloudy BKN042 OVC055 55 49     80%     30.05 30.04 0    
Apr 21 21:53 E 3 10 Light Rain OVC049 55 52     89%     30.07 30.06 0 0  
Apr 21 20:53 E 3 10 Light Rain OVC065 58 47     67%     30.06 30.06 0    
Apr 21 19:53 SE 9 10 Cloudy OVC080 61 43     52%     30.04 30.03 0    
Apr 21 18:53 ESE 13 10 Light Rain FEW055 BKN090 OVC110 62 44     52%     30.04 30.03 0   0
Apr 21 17:53 SE 14 10 Cloudy OVC120 63 43     48%     30.06 30.05      
Apr 21 16:53 ESE 14 10 Mostly Clear FEW060 64 42     45%     30.05 30.03      
Apr 21 15:53 SE 13 10 Mostly Cloudy BKN060 66 42     42%     30.08 30.07      
Apr 21 14:53 ESE 15 10 Mostly Clear FEW060 67 41     39%     30.06 30.04      
Apr 21 13:53   10 Clear CLR 65 40     40%     30.1 30.08      
Apr 21 12:53 SE 15 10 Clear CLR 62 38     41%     30.12 30.1     0
Apr 21 11:53 7 10 Clear CLR 56 37     49%     30.16 30.15      
Apr 21 10:53 SE 9 10 Mostly Clear FEW110 52 36     54%     30.19 30.19      
Apr 21 09:53   10 Mostly Cloudy FEW090 BKN110 49 35     59%     30.18 30.17   0  
Apr 21 08:53 SE 9 10 Partly Cloudy SCT120 47 35     63% 43   30.19 30.19 0    
Apr 21 07:53 ESE 11 10 Partly Cloudy SCT110 47 30     52% 42   30.19 30.18      
Apr 21 06:53 ESE 8 10 Clear CLR 46 30     53% 42   30.2 30.19      
Apr 21 05:53 Calm 10 Clear CLR 44 30     58%     30.23 30.22      
Apr 21 04:53 Calm 10 Clear CLR 47 28     48%     30.22 30.21      
Apr 21 03:53 Calm 10 Clear CLR 48 28     46%     30.22 30.21      
Apr 21 02:53 ENE 3 10 Clear CLR 47 27     46% 46   30.22 30.21      
Apr 21 01:53 Calm 10 Clear CLR 47 25     42%     30.24 30.22      
Apr 21 00:53 SE 5 10 Clear CLR 48 25     40% 46   30.22 30.22      
Apr 20 23:53 ESE 8 10 Clear CLR 50 24     36% 47   30.22 30.21      
Apr 20 22:53 ESE 8 10 Clear CLR 51 22     32%     30.21 30.21      
Apr 20 21:53 ESE 8 10 Clear CLR 54 20     26%     30.23 30.22      
Apr 20 20:53 ESE 8 10 Clear CLR 56 19     23%     30.22 30.21      
Apr 20 19:53 E 9 10 Clear CLR 58 21     24%     30.21 30.21      
Apr 20 18:53 ESE 14 10 Clear CLR 63        %     30.21 30.21      
Apr 20 17:53   10 Clear CLR 65 22     19%     30.22 30.22      
Apr 20 16:53 SE 13 10 Clear CLR 67 24     20%     30.24 30.24      
Apr 20 15:53 SE 11 10 Clear CLR 65 26     23%     30.27 30.27      
Apr 20 14:53 ESE 13 10 Clear CLR 63 29     28%     30.3 30.3      
Apr 20 13:53 ESE 10 10 Clear CLR 62 30     30%     30.34 30.33      
Apr 20 12:53 E 14 10 Clear CLR 59 32     36%     30.36 30.36      
Apr 20 11:53 E 14 10 Clear CLR 56 32     40%     30.39 30.39      
Apr 20 10:53 ESE 15 10 Clear CLR 53 33     46%     30.41 30.41      
Apr 20 09:53   10 Clear CLR 50 33     52%     30.42 30.42      
Apr 20 08:53 ESE 9 10 Clear CLR 46 33     60% 41   30.43 30.43      
Apr 20 07:53 Calm 10 Clear CLR 42 34     73%     30.43 30.44      
Apr 20 06:53 Calm 10 Clear CLR 36 31     82%     30.41 30.41      
Apr 20 05:53 SE 5 10 Clear CLR 38 31     76% 34   30.38 30.39      
Apr 20 04:53 SSE 6 10 Clear CLR 36 31     82% 31   30.39 30.39      
Apr 20 03:53 SSE 5 10 Clear CLR 36 31     82% 32   30.38 30.38      
Apr 20 02:53 SE 7 10 Clear CLR 38 31     76% 33   30.38 30.38      
Apr 20 01:53 ESE 8 10 Clear   41 31     67% 36   30.39 30.39      
Apr 20 00:53 Calm 10 Clear CLR 39 30     70%     30.37 30.38      
Jun 12 02:53 SE 8 10 Clear CLR 71 67     87%   72 29.99 29.94      
Jun 11 14:53 S 11 10 Clear   84 66     55%   86 30.02 29.97      
Jun 11 13:53   10 Mostly Clear FEW046 83 64     53%   84 30.02 29.97      
Jun 11 04:53 S 7 10 Clear CLR 68 63     84%     29.98 29.93      
Jun 10 18:53 S 10 10 Clear CLR 78 64     62%   79 29.92 29.89      
Jun 10 13:53 SSE 11 10 Clear CLR 81 63     54%   82 29.96 29.93      
Jun 10 12:53 SSE 13 10 Clear CLR 80 61     52%   81 29.97 29.94      
Jun 09 19:53 S 6 10 Clear CLR 74 58     57%   74 29.92 29.88      
Jun 08 07:53 W 5 10 Clear CLR 59 54     83%     30.08 30.05      
Jun 07 10:53 ENE 6 10 Clear CLR 70 54     57%     30.08 30.05      
Jun 06 11:53 N 8 10 Clear CLR 81 67     62%   83 29.93 29.88